UNS100 KDTW-KEWR

Flight info

Callsign UNS100
Flight time N/A
Altitude 35000
Route METRO4 MAARS SLT FQM3
Aircraft B720/M-SDFGHRWY/C

Departure

Time 2026-05-07 19:27
Airport Detroit Metropolitan Wayne County Airport (KDTW)

Arrival

Time N/A
Airport Newark Liberty International Airport (KEWR)
Time Latitude Longitude Altitude Speed Heading
2026-05-07 19:25 42.22658 -83.35060 640 ft 12 kts 27°
2026-05-07 19:25 42.22735 -83.35004 639 ft 13 kts 26°
2026-05-07 19:25 42.22814 -83.34948 639 ft 12 kts 31°
2026-05-07 19:25 42.22901 -83.34884 639 ft 15 kts 26°
2026-05-07 19:26 42.22973 -83.34845 639 ft 10 kts 16°
2026-05-07 19:26 42.23045 -83.34867 639 ft 12 kts 316°
2026-05-07 19:26 42.23084 -83.34982 639 ft 14 kts 264°
2026-05-07 19:26 42.23043 -83.35056 640 ft 0 kts 209°
2026-05-07 19:27 42.22961 -83.35116 642 ft 54 kts 211°
2026-05-07 19:27 42.22342 -83.35574 643 ft 145 kts 210°
2026-05-07 19:27 42.21269 -83.36346 788 ft 197 kts 215°
2026-05-07 19:27 42.20011 -83.37192 1496 ft 215 kts 211°
2026-05-07 19:28 42.18559 -83.38098 2005 ft 239 kts 209°
2026-05-07 19:28 42.17039 -83.39085 2579 ft 251 kts 211°
2026-05-07 19:28 42.15467 -83.40121 3198 ft 257 kts 211°
2026-05-07 19:28 42.13833 -83.41105 3631 ft 268 kts 200°
2026-05-07 19:29 42.11951 -83.41044 3680 ft 277 kts 164°
2026-05-07 19:29 42.10387 -83.39566 3721 ft 285 kts 129°
2026-05-07 19:29 42.09635 -83.37130 3770 ft 286 kts 98°
2026-05-07 19:29 42.09376 -83.34488 3870 ft 284 kts 97°
2026-05-07 19:30 42.09123 -83.31831 4166 ft 285 kts 96°
2026-05-07 19:30 42.08866 -83.29151 4493 ft 287 kts 96°
2026-05-07 19:30 42.08611 -83.26471 4821 ft 287 kts 96°
2026-05-07 19:30 42.08352 -83.23763 5155 ft 290 kts 96°
2026-05-07 19:31 42.08094 -83.21057 5568 ft 289 kts 97°
2026-05-07 19:31 42.07836 -83.18368 6136 ft 292 kts 97°
2026-05-07 19:31 42.07576 -83.15664 6719 ft 295 kts 97°
2026-05-07 19:31 42.07308 -83.12881 7319 ft 302 kts 96°
2026-05-07 19:32 42.07041 -83.10123 7916 ft 303 kts 96°
2026-05-07 19:32 42.06767 -83.07297 8536 ft 308 kts 96°
2026-05-07 19:32 42.06490 -83.04457 9155 ft 312 kts 96°
2026-05-07 19:32 42.06205 -83.01583 9790 ft 314 kts 96°
2026-05-07 19:33 42.05913 -82.98676 10439 ft 315 kts 97°
2026-05-07 19:33 42.05672 -82.95698 11087 ft 325 kts 93°
2026-05-07 19:33 42.05501 -82.92490 11906 ft 371 kts 93°
2026-05-07 19:33 42.05416 -82.88883 12909 ft 398 kts 88°
2026-05-07 19:34 42.05560 -82.85138 13977 ft 409 kts 84°
2026-05-07 19:34 42.05785 -82.81318 15082 ft 416 kts 84°
2026-05-07 19:34 42.06080 -82.77412 16216 ft 424 kts 79°
2026-05-07 19:34 42.06545 -82.73392 17399 ft 434 kts 81°
2026-05-07 19:35 42.06948 -82.69405 18582 ft 440 kts 82°
2026-05-07 19:35 42.07335 -82.65279 19769 ft 451 kts 83°
2026-05-07 19:35 42.07716 -82.60984 20980 ft 463 kts 83°
2026-05-07 19:35 42.08095 -82.56515 22241 ft 474 kts 84°
2026-05-07 19:36 42.08461 -82.52078 23459 ft 484 kts 85°
2026-05-07 19:36 42.08446 -82.47555 24609 ft 489 kts 100°
2026-05-07 19:36 42.07999 -82.43014 25724 ft 496 kts 101°
2026-05-07 19:36 42.07535 -82.38483 26792 ft 503 kts 101°
2026-05-07 19:37 42.07046 -82.33808 27907 ft 509 kts 102°
2026-05-07 19:37 42.06598 -82.29555 28824 ft 514 kts 103°
2026-05-07 19:37 42.06077 -82.24747 29596 ft 528 kts 103°
2026-05-07 19:37 42.05542 -82.19802 30330 ft 540 kts 103°
2026-05-07 19:38 42.04992 -82.14790 31098 ft 550 kts 102°
2026-05-07 19:38 42.04427 -82.09669 31842 ft 558 kts 102°
2026-05-07 19:38 42.03850 -82.04461 32591 ft 565 kts 102°
2026-05-07 19:38 42.03272 -81.99259 33319 ft 571 kts 102°
2026-05-07 19:39 42.02679 -81.93945 33590 ft 576 kts 102°
2026-05-07 19:39 42.02082 -81.88612 33727 ft 573 kts 102°
2026-05-07 19:39 42.01489 -81.83332 33862 ft 573 kts 101°
2026-05-07 19:39 42.00892 -81.78058 33995 ft 574 kts 101°
2026-05-07 19:40 42.00295 -81.72800 34133 ft 576 kts 102°
2026-05-07 19:40 41.99691 -81.67491 34256 ft 573 kts 102°
2026-05-07 19:40 41.99079 -81.62160 34397 ft 577 kts 101°
2026-05-07 19:40 41.98475 -81.56910 34532 ft 576 kts 101°
2026-05-07 19:41 41.97858 -81.51558 34680 ft 578 kts 101°
2026-05-07 19:41 41.97239 -81.46228 34822 ft 580 kts 102°
2026-05-07 19:41 41.96618 -81.40910 34958 ft 580 kts 101°
2026-05-07 19:41 41.95993 -81.35555 34948 ft 582 kts 102°
2026-05-07 19:42 41.94834 -81.25717 34927 ft 579 kts 102°
2026-05-07 19:42 41.93569 -81.15045 34931 ft 580 kts 102°
2026-05-07 19:43 41.92293 -81.04394 34934 ft 581 kts 102°
2026-05-07 19:43 41.91009 -80.93734 34932 ft 579 kts 102°
2026-05-07 19:44 41.89724 -80.83147 34923 ft 579 kts 102°
2026-05-07 19:44 41.88419 -80.72500 34931 ft 579 kts 102°
2026-05-07 19:45 41.87104 -80.61853 34927 ft 580 kts 103°
2026-05-07 19:45 41.85779 -80.51211 34922 ft 580 kts 102°
2026-05-07 19:46 41.84443 -80.40572 34920 ft 578 kts 102°
2026-05-07 19:46 41.83109 -80.30009 34898 ft 578 kts 103°
2026-05-07 19:47 41.81755 -80.19399 34903 ft 580 kts 103°
2026-05-07 19:47 41.80396 -80.08809 34908 ft 579 kts 103°
2026-05-07 19:48 41.79020 -79.98183 34906 ft 582 kts 103°
2026-05-07 19:48 41.77647 -79.87650 34906 ft 579 kts 103°
2026-05-07 19:49 41.76258 -79.77056 34914 ft 580 kts 103°
2026-05-07 19:49 41.74855 -79.66445 34913 ft 579 kts 103°
2026-05-07 19:50 41.73444 -79.55856 34903 ft 579 kts 103°
2026-05-07 19:50 41.72029 -79.45324 34898 ft 580 kts 103°
2026-05-07 19:51 41.70595 -79.34712 34903 ft 578 kts 104°
2026-05-07 19:51 41.69166 -79.24204 34873 ft 577 kts 104°
2026-05-07 19:52 41.67720 -79.13673 34874 ft 577 kts 104°
2026-05-07 19:52 41.66260 -79.03115 34870 ft 579 kts 104°
2026-05-07 19:53 41.64791 -78.92555 34877 ft 579 kts 104°
2026-05-07 19:53 41.63320 -78.82045 34869 ft 578 kts 104°
2026-05-07 19:54 41.61842 -78.71579 34873 ft 579 kts 104°
2026-05-07 19:54 41.60347 -78.61043 34878 ft 577 kts 104°
2026-05-07 19:55 41.58840 -78.50513 34874 ft 578 kts 104°
2026-05-07 19:55 41.57326 -78.40004 34871 ft 578 kts 104°
2026-05-07 19:56 41.55802 -78.29473 34855 ft 577 kts 105°
2026-05-07 19:56 41.54273 -78.19005 34858 ft 577 kts 105°
2026-05-07 19:57 41.52732 -78.08511 34858 ft 577 kts 106°
2026-05-07 19:57 41.51186 -77.98067 34837 ft 578 kts 106°
2026-05-07 19:58 41.50425 -77.92783 34587 ft 578 kts 105°
2026-05-07 19:58 41.49691 -77.87576 34306 ft 576 kts 105°
2026-05-07 19:58 41.48948 -77.82333 34021 ft 573 kts 105°
2026-05-07 19:58 41.48206 -77.77131 33738 ft 570 kts 105°
2026-05-07 19:59 41.47467 -77.71971 33475 ft 568 kts 105°
2026-05-07 19:59 41.46725 -77.66811 33222 ft 567 kts 105°
2026-05-07 19:59 41.45987 -77.61687 32960 ft 563 kts 105°
2026-05-07 19:59 41.45249 -77.56584 32710 ft 560 kts 105°
2026-05-07 20:00 41.44510 -77.51502 32428 ft 561 kts 105°
2026-05-07 20:00 41.43764 -77.46393 32173 ft 569 kts 105°
2026-05-07 20:00 41.43015 -77.41257 31934 ft 568 kts 105°
2026-05-07 20:00 41.42262 -77.36107 31684 ft 565 kts 105°
2026-05-07 20:01 41.41511 -77.31000 31416 ft 561 kts 107°
2026-05-07 20:01 41.40762 -77.25937 31147 ft 559 kts 107°
2026-05-07 20:01 41.40008 -77.20857 30881 ft 557 kts 107°
2026-05-07 20:01 41.39269 -77.15868 30615 ft 555 kts 107°
2026-05-07 20:02 41.38517 -77.10832 30367 ft 552 kts 106°
2026-05-07 20:02 41.37772 -77.05849 30117 ft 551 kts 106°
2026-05-07 20:02 41.37022 -77.00840 29836 ft 549 kts 107°
2026-05-07 20:02 41.36280 -76.95922 29567 ft 547 kts 106°
2026-05-07 20:03 41.35532 -76.90951 29299 ft 542 kts 107°
2026-05-07 20:03 41.34795 -76.86091 29031 ft 539 kts 107°
2026-05-07 20:03 41.34056 -76.81220 28767 ft 537 kts 107°
2026-05-07 20:03 41.33039 -76.76507 28470 ft 527 kts 116°
2026-05-07 20:04 41.31852 -76.71936 28217 ft 524 kts 116°
2026-05-07 20:04 41.30654 -76.67384 27941 ft 524 kts 116°
2026-05-07 20:04 41.29459 -76.62862 27685 ft 520 kts 116°
2026-05-07 20:04 41.28236 -76.58276 27242 ft 520 kts 116°
2026-05-07 20:05 41.27037 -76.53803 26662 ft 514 kts 116°
2026-05-07 20:05 41.25859 -76.49418 26011 ft 505 kts 116°
2026-05-07 20:05 41.24692 -76.45089 25357 ft 495 kts 116°
2026-05-07 20:05 41.23531 -76.40785 24698 ft 487 kts 116°
2026-05-07 20:06 41.22398 -76.36595 24054 ft 479 kts 116°
2026-05-07 20:06 41.21295 -76.32520 23395 ft 471 kts 117°
2026-05-07 20:06 41.20193 -76.28481 22751 ft 465 kts 117°
2026-05-07 20:06 41.19144 -76.24631 22129 ft 458 kts 116°
2026-05-07 20:07 41.18077 -76.20734 21498 ft 451 kts 116°
2026-05-07 20:07 41.17009 -76.16830 20847 ft 446 kts 116°
2026-05-07 20:07 41.15967 -76.13025 20207 ft 442 kts 116°
2026-05-07 20:07 41.14920 -76.09203 19565 ft 438 kts 116°
2026-05-07 20:08 41.13880 -76.05444 18939 ft 432 kts 116°
2026-05-07 20:08 41.12865 -76.01740 18314 ft 427 kts 115°
2026-05-07 20:08 41.11866 -75.98097 17680 ft 423 kts 115°
2026-05-07 20:08 41.10867 -75.94465 17058 ft 419 kts 115°
2026-05-07 20:09 41.09870 -75.90842 16454 ft 413 kts 115°
2026-05-07 20:09 41.08889 -75.87285 15847 ft 408 kts 115°
2026-05-07 20:09 41.07916 -75.83771 15251 ft 411 kts 114°
2026-05-07 20:10 41.05954 -75.76693 14103 ft 409 kts 114°
2026-05-07 20:10 41.04978 -75.73172 13547 ft 404 kts 114°
2026-05-07 20:10 41.04021 -75.69728 12992 ft 399 kts 114°
2026-05-07 20:10 41.03078 -75.66341 12452 ft 393 kts 113°
2026-05-07 20:11 41.02130 -75.62941 11891 ft 387 kts 113°
2026-05-07 20:11 41.01219 -75.59673 11512 ft 380 kts 112°
2026-05-07 20:11 41.00294 -75.56396 11199 ft 378 kts 112°
2026-05-07 20:11 40.99391 -75.53173 10876 ft 377 kts 112°
2026-05-07 20:12 40.98474 -75.49902 10550 ft 374 kts 112°
2026-05-07 20:12 40.97575 -75.46702 10233 ft 371 kts 112°
2026-05-07 20:12 40.96700 -75.43592 9917 ft 357 kts 112°
2026-05-07 20:12 40.95846 -75.40558 9564 ft 345 kts 111°
2026-05-07 20:13 40.95015 -75.37608 9189 ft 335 kts 111°
2026-05-07 20:13 40.94217 -75.34786 8820 ft 327 kts 112°
2026-05-07 20:13 40.93435 -75.32022 8439 ft 319 kts 112°
2026-05-07 20:13 40.92659 -75.29288 8050 ft 313 kts 111°
2026-05-07 20:14 40.91898 -75.26603 7650 ft 307 kts 111°
2026-05-07 20:14 40.91253 -75.24329 7313 ft 303 kts 111°
2026-05-07 20:14 40.90521 -75.21760 6919 ft 298 kts 111°
2026-05-07 20:14 40.89803 -75.19235 6532 ft 293 kts 110°
2026-05-07 20:15 40.89127 -75.16863 6164 ft 289 kts 110°
2026-05-07 20:15 40.88639 -75.15151 6068 ft 280 kts 110°
2026-05-07 20:15 40.87959 -75.12766 6174 ft 278 kts 110°
2026-05-07 20:15 40.87277 -75.10335 6173 ft 283 kts 109°
2026-05-07 20:16 40.86599 -75.07909 6170 ft 284 kts 109°
2026-05-07 20:16 40.85920 -75.05476 6170 ft 282 kts 110°
2026-05-07 20:16 40.85226 -75.03033 6170 ft 283 kts 110°
2026-05-07 20:16 40.84537 -75.00624 6169 ft 284 kts 110°
2026-05-07 20:17 40.83840 -74.98168 6167 ft 284 kts 110°
2026-05-07 20:17 40.83146 -74.95723 6164 ft 283 kts 110°
2026-05-07 20:17 40.82455 -74.93281 6164 ft 282 kts 110°
2026-05-07 20:17 40.81773 -74.90876 6167 ft 283 kts 110°
2026-05-07 20:18 40.81074 -74.88425 6168 ft 283 kts 110°
2026-05-07 20:18 40.80329 -74.86033 6169 ft 283 kts 112°
2026-05-07 20:18 40.79566 -74.83636 6165 ft 284 kts 112°
2026-05-07 20:18 40.78802 -74.81235 6167 ft 284 kts 112°
2026-05-07 20:19 40.78037 -74.78854 6165 ft 283 kts 116°
2026-05-07 20:19 40.77024 -74.76598 6158 ft 287 kts 121°
2026-05-07 20:19 40.75985 -74.74355 6166 ft 288 kts 121°
2026-05-07 20:19 40.74944 -74.72111 6166 ft 285 kts 121°
2026-05-07 20:20 40.73913 -74.69881 6165 ft 286 kts 121°
2026-05-07 20:20 40.72861 -74.67603 6164 ft 287 kts 121°
2026-05-07 20:20 40.71821 -74.65345 6163 ft 287 kts 121°
2026-05-07 20:20 40.70786 -74.63085 6165 ft 287 kts 121°
2026-05-07 20:21 40.69750 -74.60824 6128 ft 289 kts 121°
2026-05-07 20:21 40.68708 -74.58553 6018 ft 287 kts 121°
2026-05-07 20:21 40.67672 -74.56310 5903 ft 287 kts 121°
2026-05-07 20:21 40.66629 -74.54063 5790 ft 288 kts 121°
2026-05-07 20:22 40.65560 -74.51840 5678 ft 287 kts 121°
2026-05-07 20:22 40.64492 -74.49638 5566 ft 286 kts 122°
2026-05-07 20:22 40.63418 -74.47434 5455 ft 284 kts 122°
2026-05-07 20:22 40.62346 -74.45235 5245 ft 285 kts 122°
2026-05-07 20:23 40.61269 -74.43027 5015 ft 284 kts 122°
2026-05-07 20:23 40.60201 -74.40841 4783 ft 284 kts 122°
2026-05-07 20:23 40.59144 -74.38679 4429 ft 283 kts 121°